Theta_e
321 333 340 340 340 340 335 335 338 338 337 337 335 331 329 323 319 326 328 328 329 329 332 333 333 332 331 330 329 329 328 324 321 320 320 320 321 321 322 325 327 328 328
314 316 320 329 337 340 340 336 339 339 339 337 337 334 332 329 325 320 326 326 328 329 329 332 333 332 332 331 330 329 329 327 323 322 321 322 323 325 327 328 329 329 330
311 313 314 317 324 336 339 340 339 338 338 338 337 336 334 332 330 327 319 322 326 329 329 330 332 333 332 331 331 331 330 329 328 327 324 324 326 327 329 330 330 329 327
310 311 312 314 316 321 336 339 339 338 338 336 336 336 336 335 333 331 329 321 323 326 329 328 328 329 331 332 332 331 331 330 329 329 327 326 327 329 331 331 328 327 327
308 308 310 311 313 314 318 334 338 338 338 337 336 336 335 336 335 334 331 330 324 326 328 328 328 327 327 329 332 332 331 331 331 331 330 329 328 330 331 330 327 327 326
308 309 308 308 311 313 317 324 333 334 337 337 336 335 335 335 335 335 332 332 330 326 327 328 328 327 327 327 327 331 332 331 331 331 330 330 329 330 331 329 328 327 327
309 309 309 309 308 310 314 320 326 331 332 333 333 335 334 334 334 333 333 332 331 328 326 327 327 327 327 327 326 326 326 330 330 329 330 329 330 329 330 329 329 328 327
309 309 309 308 308 309 310 313 323 327 329 330 331 331 333 333 332 332 332 329 331 330 327 326 327 326 326 326 326 326 325 324 326 329 329 328 328 328 328 330 329 329 329
309 309 309 308 307 308 310 312 316 323 325 328 329 329 328 331 329 329 330 330 327 327 328 326 326 326 326 326 326 326 326 325 324 325 329 329 328 329 330 330 331 329 329
310 310 309 308 307 308 308 309 313 318 324 325 328 329 330 327 327 326 325 327 331 325 325 326 326 326 326 326 326 327 327 326 326 325 326 330 330 330 331 331 331 330 329
310 309 308 307 307 308 309 310 311 315 319 323 324 325 328 327 325 321 323 323 325 326 327 327 330 326 326 326 326 327 327 327 326 325 325 324 329 330 331 331 331 330 330
308 309 308 308 308 307 307 309 310 311 316 321 323 324 325 325 324 320 320 319 323 326 327 326 325 326 326 326 326 327 327 327 327 327 325 325 325 326 331 331 330 330 330
306 307 307 308 308 308 308 308 308 309 311 315 319 322 323 323 325 325 324 321 320 324 326 326 326 326 326 326 327 327 327 327 327 327 327 324 324 324 326 327 329 330 329
307 308 308 308 308 308 308 308 310 310 311 313 316 318 320 322 323 323 324 324 320 318 322 325 326 326 326 326 326 326 327 327 327 326 327 326 325 324 325 325 326 328 328
307 308 308 308 308 308 308 308 309 311 312 313 315 317 318 318 320 321 322 323 323 324 323 322 324 325 325 325 325 325 325 325 325 325 325 326 325 325 325 325 326 327 327
305 307 307 307 307 308 308 308 309 311 312 314 314 315 316 317 318 319 320 321 322 322 323 323 324 324 325 325 325 325 325 325 324 325 325 325 325 325 325 326 326 327 327
305 305 305 305 306 306 307 307 308 309 313 314 314 315 315 317 317 318 319 320 321 321 322 322 324 324 324 324 324 324 324 324 323 323 324 324 324 325 326 325 325 326 327
306 307 308 307 306 306 307 308 309 310 312 314 314 315 316 316 317 318 318 319 320 320 321 322 323 323 324 324 323 323 322 322 322 323 324 324 325 325 325 325 326 327 326
307 309 310 310 307 307 308 308 308 309 310 312 313 315 316 316 316 316 317 319 320 320 320 321 321 322 322 322 322 322 321 322 322 323 323 323 323 323 324 325 326 324 325
306 308 309 308 308 308 306 308 308 309 311 312 313 314 315 315 316 316 317 318 318 319 320 320 320 320 320 320 321 321 321 322 321 321 323 323 322 323 323 324 324 323 322
303 302 305 306 308 308 306 306 309 309 311 313 313 314 315 315 315 315 316 318 318 319 319 320 319 319 319 319 319 320 320 320 320 320 321 321 322 323 324 323 323 322 322
299 299 300 299 300 300 299 300 302 306 310 312 313 314 314 315 315 316 316 316 316 318 317 317 318 318 319 319 319 320 319 319 318 320 320 319 319 320 320 321 322 320 321
295 295 295 296 297 298 297 299 301 306 309 311 313 314 314 314 315 316 316 316 317 318 318 318 318 318 318 318 318 318 318 318 318 318 319 318 318 318 319 319 319 320 320
292 292 292 293 294 295 296 298 300 304 306 308 311 312 312 313 314 315 315 314 315 314 315 317 316 314 315 317 318 319 319 319 319 319 318 315 317 317 318 318 318 317 317
290 290 290 291 291 294 295 297 299 303 305 305 306 308 308 309 312 314 314 311 308 304 301 306 304 303 302 305 312 313 310 309 303 306 305 306 308 308 312 313 313 312 311
288 288 288 289 289 292 294 296 299 302 300 299 299 298 298 300 302 308 309 308 300 298 298 298 297 297 297 297 298 299 299 301 300 300 297 301 301 302 301 303 304 304 304
Wind_Speed
18 21 24 27 28 27 28 29 29 28 28 27 26 25 24 23 24 26 24 20 23 23 19 18 17 17 16 15 14 13 13 12 11 10 9 9 8 8 8 8 9 10 8
22 22 21 23 26 29 32 32 31 30 29 31 30 29 28 26 26 28 28 24 24 26 24 21 19 19 19 18 17 16 15 14 13 12 11 10 9 9 9 10 11 12 13
28 26 25 26 24 27 30 32 33 30 28 28 34 33 32 30 28 27 30 29 25 28 28 26 23 21 21 20 19 18 17 17 16 14 13 12 11 11 12 12 13 11 11
29 30 30 29 27 25 26 30 33 31 33 30 28 34 36 34 33 32 29 30 31 29 32 30 28 25 25 21 21 20 19 20 18 16 14 14 14 14 14 13 12 11 11
29 31 31 32 32 32 29 28 27 34 32 33 34 30 36 38 37 34 35 33 32 31 33 32 31 29 28 27 23 22 21 21 20 20 18 17 17 16 15 14 14 12 12
31 30 31 34 33 32 30 28 29 29 25 30 29 29 29 36 37 36 37 36 36 34 34 35 33 32 30 30 30 26 24 23 23 22 22 21 20 17 18 18 15 13 13
33 33 34 34 34 36 31 29 28 28 26 27 23 19 23 31 35 35 37 40 39 39 37 38 36 34 32 31 31 32 30 25 25 25 25 23 22 20 21 20 16 15 15
32 33 34 35 34 34 34 33 28 28 28 25 15 14 4 10 29 34 36 35 40 41 41 41 38 37 34 32 31 32 32 31 30 28 27 26 24 23 22 21 18 17 16
34 34 33 33 32 31 33 32 30 30 27 27 30 17 3 5 3 15 33 37 33 38 42 42 41 39 37 36 34 32 30 30 30 30 28 27 27 25 23 22 21 19 19
29 31 34 34 33 32 32 33 31 32 29 27 21 32 31 6 4 2 13 31 38 32 38 41 40 40 41 40 38 35 32 31 32 32 30 27 26 25 25 24 23 21 21
29 29 30 31 32 32 33 31 31 31 32 31 29 22 26 25 16 3 4 5 21 32 41 38 41 45 45 42 40 38 37 33 34 34 32 29 26 25 25 25 25 24 23
28 30 30 31 32 32 32 33 33 34 33 32 31 32 29 16 16 6 2 3 7 18 35 34 39 41 42 44 42 43 39 36 36 35 34 31 30 28 27 25 26 27 25
27 28 29 29 30 31 32 32 32 33 35 33 31 32 31 32 26 24 19 7 4 19 17 29 35 39 41 42 41 42 40 38 36 38 37 33 32 31 31 30 29 29 28
26 26 27 27 28 29 30 30 31 33 33 34 34 33 31 31 30 28 23 13 4 4 16 21 26 32 35 38 36 35 37 35 35 36 36 38 35 33 33 33 33 31 30
24 23 24 26 27 28 28 28 29 31 31 32 33 33 34 32 33 31 29 27 18 10 10 12 20 24 27 27 30 31 34 33 32 34 33 34 38 36 34 36 35 34 32
20 20 22 24 26 27 27 25 26 27 29 31 32 32 32 31 34 34 31 29 29 24 12 17 24 26 29 33 31 32 33 32 31 32 31 31 34 36 36 34 37 36 34
18 19 22 24 24 25 25 26 26 25 26 29 31 30 32 32 32 33 30 29 27 26 14 22 24 22 24 28 28 27 25 28 31 34 33 33 35 36 35 35 36 38 36
19 19 21 23 25 25 25 25 25 22 24 26 29 31 32 31 32 31 29 29 27 27 24 13 21 25 28 30 31 31 33 32 33 34 35 34 33 35 36 36 33 34 35
20 20 20 21 23 24 24 25 23 21 24 27 28 29 30 29 29 28 28 26 25 24 25 20 20 22 28 29 31 29 31 32 32 32 35 35 35 36 40 36 35 37 34
15 15 14 14 16 17 15 12 16 18 19 24 29 28 28 26 26 27 28 27 22 23 21 21 20 20 23 23 24 24 25 27 28 29 29 31 32 31 32 35 36 36 35
13 11 8 7 5 5 10 14 16 14 13 14 18 24 25 26 26 27 28 27 26 25 21 17 16 15 18 14 17 21 23 24 27 27 29 29 28 28 30 33 38 40 42
12 13 10 7 8 7 17 15 13 16 14 13 15 17 20 23 25 27 23 24 26 28 23 17 16 14 19 18 23 24 19 16 7 18 25 29 28 30 33 34 33 30 29
13 12 14 13 11 11 16 17 16 15 16 15 14 15 17 18 19 21 23 24 26 29 28 23 20 21 20 23 24 22 23 20 20 22 19 19 28 27 33 32 31 30 28
13 13 13 14 14 15 19 21 19 16 14 13 9 10 11 9 10 12 11 10 12 9 18 25 24 13 12 20 22 23 23 22 26 22 20 8 19 27 29 28 27 26 24
15 15 14 14 15 16 20 20 18 15 7 5 4 4 6 7 11 14 13 9 11 11 13 11 14 13 8 8 16 17 10 7 3 3 0 2 4 8 13 18 17 17 14
11 11 13 15 15 19 23 19 9 3 14 19 17 18 17 8 0 6 12 17 16 12 13 12 9 8 6 7 8 8 3 4 2 1 5 4 2 4 5 4 4 4 4
Wind_Direction
288 289 271 257 249 244 240 239 238 237 235 234 234 235 235 235 236 233 235 239 232 229 229 226 228 227 226 228 232 234 237 243 248 252 258 265 272 278 284 291 295 297 300
276 281 285 282 275 255 245 240 237 235 236 237 236 235 236 236 238 235 235 239 237 233 231 231 231 234 233 230 233 235 238 240 244 250 255 262 265 269 282 291 294 297 299
268 271 275 276 278 273 264 246 238 234 233 235 241 240 239 239 238 238 236 237 240 236 235 234 233 233 235 237 237 239 242 246 246 248 254 257 261 270 282 287 292 300 303
270 269 269 270 273 274 268 244 237 230 233 233 234 240 241 242 242 240 240 238 237 240 236 235 238 237 237 238 239 242 244 249 259 262 258 261 266 275 283 286 287 290 292
274 271 271 270 270 270 269 262 251 232 224 227 230 232 238 240 244 244 242 240 239 241 237 237 238 242 243 242 239 241 245 249 253 258 263 268 270 272 278 280 284 286 286
272 273 272 268 266 269 266 261 258 257 260 232 231 230 231 238 243 243 243 242 240 240 240 238 239 242 245 245 247 243 243 248 252 255 261 263 265 270 272 273 274 278 276
267 268 270 272 268 265 262 255 254 253 258 260 269 246 229 237 240 243 243 245 244 239 239 239 240 244 248 248 250 252 250 247 251 253 257 261 264 263 267 271 266 267 267
268 267 267 266 267 262 259 257 246 246 249 246 242 250 266 243 231 232 237 242 244 245 242 240 242 246 247 251 252 254 255 256 253 252 253 257 260 262 264 266 264 262 260
266 268 267 265 268 263 255 252 248 243 245 242 232 226 196 223 156 224 235 240 239 239 242 242 244 248 249 251 255 256 256 258 260 257 253 252 256 259 258 258 257 261 259
281 276 272 269 266 265 257 254 249 243 243 241 234 229 238 243 184 207 224 229 234 239 240 239 247 251 251 251 254 258 260 260 261 262 259 255 254 255 255 254 254 257 260
284 279 276 274 271 267 261 254 250 246 240 245 238 233 232 236 239 176 220 207 220 229 237 242 245 249 251 252 255 258 260 260 263 262 262 261 256 253 252 253 255 254 256
287 282 276 270 266 265 265 262 257 250 246 242 240 238 232 221 222 198 188 193 208 232 234 234 237 242 249 253 255 261 264 264 266 266 263 262 258 255 251 250 253 254 253
281 282 281 276 273 273 269 266 257 253 248 245 247 242 238 239 236 219 224 219 216 231 232 238 243 246 249 253 256 258 262 265 265 265 265 263 258 258 257 258 252 251 251
276 285 285 279 275 271 269 268 265 258 249 245 246 249 245 241 239 241 231 220 243 239 238 236 241 245 248 250 254 260 261 264 267 267 265 263 260 260 257 258 259 257 255
278 277 281 276 274 273 272 271 266 263 255 248 243 244 244 245 243 242 243 241 235 243 241 239 232 235 243 249 253 256 257 264 267 267 265 263 261 261 259 257 257 257 259
290 281 282 275 271 271 274 269 265 261 252 248 245 244 244 242 246 243 241 244 240 241 254 246 235 237 248 252 258 259 262 264 268 268 267 263 261 263 261 260 257 255 259
298 285 282 280 276 275 274 269 265 264 258 249 248 244 246 242 240 243 242 239 236 236 239 253 255 249 249 251 253 256 258 265 269 271 268 266 266 261 261 262 261 257 257
307 299 295 289 286 283 280 271 264 262 260 251 253 255 247 246 244 243 242 242 234 238 238 242 244 245 244 250 260 262 269 273 269 268 265 270 268 263 261 272 260 257 256
312 303 299 288 282 280 274 274 264 268 267 256 257 258 254 249 244 243 243 237 236 238 238 239 247 249 256 254 258 261 270 271 275 273 273 272 269 266 265 263 259 262 256
324 328 315 293 285 279 275 274 284 301 287 259 259 255 253 247 244 245 241 240 237 239 233 237 245 253 251 253 256 258 264 271 281 283 279 276 276 270 266 262 262 259 259
339 343 341 337 336 299 297 301 306 303 293 277 265 261 259 256 252 247 242 236 226 232 230 230 241 238 242 227 240 250 249 269 274 275 277 278 274 271 268 263 265 264 266
344 345 353 357 1 350 348 333 320 301 296 293 286 279 271 264 261 254 251 249 247 233 231 232 239 235 242 235 239 243 248 255 261 265 258 266 271 272 271 268 272 276 279
355 1 356 0 358 344 342 337 324 306 301 295 282 278 275 268 261 259 253 251 253 254 246 236 239 237 239 242 244 246 243 238 251 252 257 261 270 266 279 271 276 279 275
2 3 7 6 357 351 344 337 322 305 285 280 279 278 275 265 261 258 258 262 256 239 253 252 252 240 234 236 242 243 249 254 254 247 248 258 268 260 266 271 277 277 280
358 360 7 7 9 5 3 339 320 284 251 214 242 256 241 230 245 251 262 230 165 138 105 149 149 150 154 208 236 237 216 209 238 200 139 232 256 297 286 283 279 276 276
347 352 358 360 2 7 8 1 352 123 133 112 105 89 71 76 237 252 227 196 148 148 148 131 107 89 79 53 74 96 77 124 98 115 1 341 328 358 329 332 356 352 320